Tacoma, WA

12:58 AM PDT on July 26, 2016 (GMT -0700)
McChord Air Force Base

Weather History for KTCM - February, 2013

Change the Weather History Date:

Saturday, February 16, 2013

  Actual Average Record
Temperature  
Mean Temperature 41 °F -  
Max Temperature 50 °F 47 °F 60 °F (1997)
Min Temperature 32 °F 30 °F 12 °F (1956)
Degree Days  
Heating Degree Days 24    
Moisture  
Dew Point 39 °F    
Average Humidity 92    
Maximum Humidity 100    
Minimum Humidity 66    
Precipitation  
Precipitation 0.03 in - - ()
Sea Level Pressure  
Sea Level Pressure 30.19 in    
Wind  
Wind Speed 6 mph (SSW)    
Max Wind Speed 18 mph    
Max Gust Speed 30 mph    
Visibility 7 miles    
Events Fog , Rain    
Averages and records for this station are not official NWS values.
T = Trace of Precipitation, MM = Missing Value Source: NWS Daily Summary

Daily Weather History Graph

Daily Weather History Graph

Search for Another Location

Airport or City:

Trip Planner

Search our weather history database for the weather conditions in past years. The results will help you decide how hot, cold, wet, or windy it might be!

Date:

Astronomy

Feb. 16, 2013 Rise Set
Actual Time 7:12 AM PST 5:36 PM PST
Civil Twilight 6:41 AM PST 6:07 PM PST
Nautical Twilight 6:05 AM PST 6:43 PM PST
Astronomical Twilight 5:30 AM PST 7:18 PM PST
Moon 9:59 AM PST (2/16) 12:09 AM PST (2/16)
Length of Visible Light 11h 26m
Length of Day
10h 23m
Waxing Crescent, 40% of the Moon is Illuminated
Feb 16
Waxing Crescent
Feb 17
First Quarter
Feb 25
Full
Mar 4
Last Quarter
Mar 11
New

Hourly Weather History & Observations

Time (PST) Temp. Windchill Dew Point Humidity Pressure Visibility Wind Dir Wind Speed Gust Speed Precip Events Conditions
12:13 AM 35.6 °F - 33.8 °F 93% 30.18 in 1.2 mi SSW 2.3 mph - N/A   Clear
12:23 AM 35.6 °F - 35.6 °F 100% 30.18 in 2.5 mi SW 1.2 mph - N/A   Clear
12:28 AM 35.6 °F - 35.6 °F 100% 30.18 in 1.8 mi SW 2.3 mph - N/A   Clear
12:33 AM 35.6 °F - 35.6 °F 100% 30.19 in 2.0 mi WSW 2.3 mph - N/A   Clear
12:38 AM 35.6 °F - 35.6 °F 100% 30.19 in 6.0 mi SW 2.3 mph - N/A   Clear
12:58 AM 33.8 °F 30.8 °F 32.0 °F 93% 30.21 in 2.0 mi South 3.5 mph - N/A   Clear
1:00 AM 32.0 °F 28.7 °F 32.0 °F 100% 30.19 in 1.5 mi South 3.5 mph - N/A   Partly Cloudy
1:05 AM 32.0 °F 27.5 °F 32.0 °F 100% 30.18 in 0.8 mi South 4.6 mph - N/A   Mist
1:10 AM 32.0 °F 28.7 °F 32.0 °F 100% 30.18 in 0.5 mi South 3.5 mph - N/A Fog Light Freezing Fog
1:15 AM 32.0 °F 28.7 °F 32.0 °F 100% 30.18 in 0.5 mi South 3.5 mph - N/A Fog Fog
1:20 AM 32.0 °F 28.7 °F 32.0 °F 100% 30.18 in 0.8 mi South 3.5 mph - N/A   Clear
1:25 AM 33.8 °F - 32.0 °F 93% 30.18 in 1.0 mi South 2.3 mph - N/A   Clear
1:30 AM 33.8 °F - 32.0 °F 93% 30.19 in 1.5 mi South 2.3 mph - N/A   Clear
1:35 AM 33.8 °F - 33.8 °F 100% 30.19 in 1.2 mi South 2.3 mph - N/A   Clear
1:40 AM 32.0 °F 28.7 °F 32.0 °F 100% 30.19 in 0.8 mi South 3.5 mph - N/A   Clear
1:45 AM 32.0 °F - 32.0 °F 100% 30.19 in 1.0 mi South 2.3 mph - N/A   Clear
1:50 AM 32.0 °F - 32.0 °F 100% 30.19 in 1.0 mi South 1.2 mph - N/A   Clear
1:55 AM 32.0 °F - 32.0 °F 100% 30.18 in 0.5 mi South 2.3 mph - N/A Fog Fog
1:58 AM 32.0 °F - 32.0 °F 100% 30.20 in 0.5 mi SE 2.3 mph - N/A Fog Fog
2:03 AM 32.0 °F - 32.0 °F 100% 30.18 in 0.8 mi ENE 1.2 mph - N/A   Clear
2:08 AM 32.0 °F - 32.0 °F 100% 30.18 in 3.0 mi Calm Calm - N/A   Clear
2:58 AM 34.7 °F - 34.5 °F 99% 30.19 in 9.0 mi ESE 1.2 mph - N/A   Mostly Cloudy
3:58 AM 34.2 °F 31.2 °F 34.0 °F 99% 30.20 in 10.0 mi South 3.5 mph - N/A   Overcast
4:18 AM 41.0 °F 35.8 °F 41.0 °F 100% 30.17 in 10.0 mi SW 8.1 mph - N/A   Overcast
4:58 AM 43.9 °F 38.3 °F 43.5 °F 99% 30.20 in 10.0 mi SSW 10.4 mph - N/A   Overcast
5:58 AM 43.7 °F 39.1 °F 43.5 °F 99% 30.20 in 10.0 mi SSW 8.1 mph - N/A   Overcast
6:58 AM 44.6 °F 39.2 °F 44.1 °F 98% 30.20 in 10.0 mi SSW 10.4 mph - N/A   Overcast
7:58 AM 45.0 °F 38.9 °F 43.5 °F 95% 30.21 in 10.0 mi SSW 12.7 mph - N/A   Overcast
8:43 AM 44.6 °F 39.2 °F 44.6 °F 100% 30.20 in 10.0 mi SW 10.4 mph - N/A   Overcast
8:53 AM 46.4 °F 40.7 °F 44.6 °F 93% 30.20 in 10.0 mi SW 12.7 mph - N/A   Overcast
8:58 AM 45.7 °F 39.8 °F 44.2 °F 95% 30.22 in 10.0 mi SW 12.7 mph - N/A   Overcast
9:07 AM 46.4 °F 41.5 °F 44.6 °F 93% 30.21 in 10.0 mi SW 10.4 mph - N/A   Light Drizzle
9:08 AM 46.4 °F 41.1 °F 44.6 °F 93% 30.21 in 10.0 mi SW 11.5 mph - N/A   Light Drizzle
9:17 AM 46.4 °F 41.5 °F 44.6 °F 93% 30.21 in 10.0 mi SW 10.4 mph - N/A   Overcast
9:22 AM 46.4 °F 41.1 °F 44.6 °F 93% 30.21 in 10.0 mi SW 11.5 mph - N/A   Overcast
9:25 AM 46.4 °F 41.5 °F 44.6 °F 93% 30.21 in 10.0 mi SW 10.4 mph - N/A   Light Drizzle
9:34 AM 44.6 °F 39.7 °F 44.6 °F 100% 30.21 in 10.0 mi SW 9.2 mph - N/A   Overcast
9:48 AM 44.6 °F 40.2 °F 44.6 °F 100% 30.21 in 10.0 mi SW 8.1 mph - N/A   Mostly Cloudy
9:53 AM 46.4 °F 42.4 °F 44.6 °F 93% 30.21 in 10.0 mi SW 8.1 mph - N/A   Mostly Cloudy
9:58 AM 45.5 °F 40.8 °F 45.1 °F 99% 30.22 in 10.0 mi SW 9.2 mph - 0.00 in   Overcast
10:08 AM 46.4 °F 41.5 °F 44.6 °F 93% 30.20 in 10.0 mi SSW 10.4 mph - N/A   Overcast
10:13 AM 46.4 °F 41.5 °F 44.6 °F 93% 30.20 in 10.0 mi SSW 10.4 mph - N/A   Overcast
10:23 AM 46.4 °F 40.7 °F 44.6 °F 93% 30.20 in 10.0 mi SSW 12.7 mph - N/A   Overcast
10:57 AM 46.4 °F 41.1 °F 44.6 °F 93% 30.20 in 10.0 mi SW 11.5 mph - N/A Rain Light Rain
10:58 AM 46.0 °F 40.6 °F 44.4 °F 94% 30.22 in 10.0 mi SW 11.5 mph - N/A Rain Light Rain
11:01 AM 46.4 °F 41.5 °F 44.6 °F 93% 30.20 in 10.0 mi SW 10.4 mph - N/A Rain Light Rain
11:06 AM 46.4 °F 42.4 °F 44.6 °F 93% 30.20 in 9.0 mi SSW 8.1 mph - N/A Rain Light Rain
11:11 AM 46.4 °F 42.9 °F 44.6 °F 93% 30.20 in 6.0 mi WSW 6.9 mph - N/A Rain Light Rain
11:21 AM 46.4 °F 43.5 °F 44.6 °F 93% 30.20 in 3.0 mi West 5.8 mph - N/A Rain Light Rain
11:31 AM 46.4 °F 42.9 °F 46.4 °F 100% 30.20 in 7.0 mi SW 6.9 mph - N/A   Light Drizzle
11:33 AM 46.4 °F 42.4 °F 46.4 °F 100% 30.20 in 9.0 mi SW 8.1 mph - N/A   Overcast
11:38 AM 46.4 °F 41.9 °F 46.4 °F 100% 30.20 in 10.0 mi WSW 9.2 mph - N/A   Overcast
11:58 AM 47.7 °F - 45.1 °F 91% 30.21 in 10.0 mi SW 10.4 mph - 0.03 in   Overcast
12:53 PM 50.0 °F - 41.0 °F 71% 30.18 in 10.0 mi SW 9.2 mph - N/A   Mostly Cloudy
12:58 PM 48.9 °F - 41.0 °F 74% 30.20 in 10.0 mi WSW 9.2 mph - N/A   Mostly Cloudy
1:23 PM 50.0 °F - 41.0 °F 71% 30.16 in 10.0 mi West 12.7 mph 21.9 mph N/A   Mostly Cloudy
1:58 PM 49.5 °F - 39.2 °F 68% 30.18 in 10.0 mi WSW 15.0 mph 26.5 mph N/A   Partly Cloudy
2:29 PM 50.0 °F - 39.2 °F 66% 30.16 in 10.0 mi West 18.4 mph 29.9 mph N/A   Partly Cloudy
2:58 PM 49.1 °F - 40.5 °F 72% 30.18 in 10.0 mi West 12.7 mph 18.4 mph N/A   Scattered Clouds
3:16 PM 48.2 °F - 41.0 °F 76% 30.17 in 10.0 mi West 12.7 mph 19.6 mph N/A Rain Light Rain
3:26 PM 48.2 °F - 41.0 °F 76% 30.16 in 10.0 mi WSW 15.0 mph 19.6 mph N/A   Scattered Clouds
3:58 PM 48.2 °F - 40.3 °F 74% 30.18 in 10.0 mi WSW 13.8 mph 27.6 mph 0.00 in   Clear
4:58 PM 47.3 °F - 37.6 °F 69% 30.17 in 10.0 mi WSW 16.1 mph 25.3 mph N/A   Partly Cloudy
5:58 PM 44.8 °F 38.7 °F 37.0 °F 74% 30.18 in 10.0 mi SW 12.7 mph 23.0 mph N/A   Overcast
6:58 PM 43.2 °F 36.6 °F 37.9 °F 82% 30.18 in 10.0 mi SW 12.7 mph 23.0 mph N/A   Mostly Cloudy
7:58 PM 42.6 °F 34.9 °F 37.6 °F 82% 30.20 in 10.0 mi SW 16.1 mph 19.6 mph N/A   Mostly Cloudy
8:28 PM 42.8 °F 38.0 °F 37.4 °F 81% 30.18 in 10.0 mi SSW 8.1 mph 19.6 mph N/A   Overcast
8:58 PM 41.5 °F 35.9 °F 36.3 °F 82% 30.21 in 10.0 mi SSW 9.2 mph - N/A   Mostly Cloudy
9:03 PM 41.0 °F 35.2 °F 35.6 °F 81% 30.19 in 10.0 mi SSW 9.2 mph - N/A   Overcast
9:08 PM 41.0 °F 35.8 °F 35.6 °F 81% 30.19 in 10.0 mi SSW 8.1 mph - N/A   Mostly Cloudy
9:58 PM 39.9 °F 35.1 °F 35.2 °F 83% 30.22 in 10.0 mi SSW 6.9 mph - N/A   Scattered Clouds
10:58 PM 36.1 °F 29.9 °F 34.0 °F 92% 30.23 in 10.0 mi South 8.1 mph - N/A   Partly Cloudy
11:58 PM 36.0 °F 30.3 °F 34.7 °F 95% 30.24 in 10.0 mi South 6.9 mph - N/A   Partly Cloudy